www.pogodaiklimat.ru

Погода и климат >> Архив погоды >> Россия >> Приморский край >> Сосуново


ПОГОДА в Сосуново

  • Прогноз погоды в Сосуново
  • Монитор погоды в Сосуново

АРХИВ ПОГОДЫ в Сосуново

Время (UTC), дата Ветер
(напр.,м/с)
 
Видим.   Явления Облачность Т
(С)
Тd
(С)
f
(%)
Тe
(С)
Тes
(С)
Комфортность P
(гПа)
Po
(гПа)
Тmin
(С)
Tmax
(С)
R
(мм)
R24
(мм)
S
(см)
09 12.02 З 4
{11}
50 км ясно -12.9 -27.7 28 -20 -20 1022.5 1021.8 -7.9
12 12.02 З 2 50 км ясно -14.1 -29.3 26 -19 -19 1024.9 1024.1
15 12.02 ЮЗ 2 50 км ясно -19.4 -27.8 47 -25 -25 1025.5 1024.7
18 12.02 ЮЗ 3 50 км ясно -22.0 -27.8 59 -30 -30 1025.3 1024.5
21 12.02 Ю 4 20 км ясно -22.6 -27.8 62 -32 -32 опасность
обморожения
1024.9 1024.1 -22.7
00 13.02 Ю 5 50 км ясно -17.9 -25.7 50 -27 -26 1024.6 1023.8 -22.9
03 13.02 Ю 3 50 км ясно -9.2 -23.0 32 -15 -10 1021.8 1021.1
06 13.02 ЮЗ 5
{11}
50 км ясно -7.5 -26.4 20 -14 -13 1020.1 1019.4
09 13.02 СЗ 3
{10}
50 км ясно -10.3 -26.6 25 -16 -16 1022.2 1021.5 -7.2
12 13.02 ЮЗ 2 50 км ясно -16.7 -26.6 42 -22 -22 1022.2 1023.4
15 13.02 ЮЗ 3 50 км ясно -19.2 -25.9 55 -27 -27 1024.6 1023.8
18 13.02 Ю 6 50 км ясно -19.2 -25.5 57 -30 -30 1023.9 1023.1
21 13.02 Ю 6 50 км ясно -20.5 -25.7 63 -32 -32 опасность
обморожения
1023.9 1023.1 -20.5
00 14.02 Ю 5 50 км ясно -15.9 -23.8 51 -25 -23 1024.1 1023.4 -21.1
03 14.02 СЗ 5
{13}
50 км ясно -6.5 -25.6 20 -13 -10 1021.5 1020.8
06 14.02 З 5-12
{13}
50 км 3/3 1000 м
[Cu hum]
-4.3 -25.2 18 -10 -9 1019.8 1019.1
09 14.02 С 1
{12}
50 км ясно -8.3 -25.4 24 -10 -10 1020.7 1019.9 -3.8
12 14.02 ЮЗ 2 50 км ясно -14.2 -24.8 40 -19 -19 1021.7 1021.0
15 14.02 ЮЗ 4 50 км ясно -17.8 -24.6 55 -26 -26 1020.9 1020.1
18 14.02 ЮЗ 3 50 км ясно -19.3 -24.8 62 -27 -27 1019.6 1018.9
21 14.02 ЮЗ 4 50 км ясно -20.5 -24.8 68 -30 -30 1018.9 1018.1 -20.5
00 15.02 ЮЗ 4 20 км 5/0
[Cc]
-11.9 -21.7 44 -19 -17 1017.9 1017.2 -21.4
03 15.02 Ю 4 20 км 9/0
[Cs]
-3.4 -21.2 24 -8 -5 1014.6 1013.9
06 15.02 ЮЗ 5 20 км 9/0
[As op]
-2.1 -26.4 14 -7 -7 1011.7 1011.0
09 15.02 ЮЗ 2 20 км 10/0
[As op]
-5.7 -25.0 20 -9 -9 1011.0 1010.3 -1.8
12 15.02 З 1 20 км 10/0
[Cs]
-8.8 -22.7 31 -11 -11 1011.3 1010.6
15 15.02 З 2 20 км 3/0
[Cs]
-11.9 -23.4 38 -16 -16 1010.9 1010.2
18 15.02 ЮЗ 4 20 км ясно -15.8 -23.2 53 -24 -24 1010.2 1009.5
21 15.02 ЮЗ 3 20 км ясно -17.5 -23.4 60 -25 -25 1008.7 1007.9 -17.5
00 16.02 З 3 20 км 3/0
[Ci fib]
-5.2 -23.5 22 -10 -7 1008.6 1007.9 -18.1
03 16.02 Ю 5 20 км ясно -3.5 -18.8 29 -9 -6 1006.2 1005.5
06 16.02 З 6-11
{11}
20 км ясно +0.3 -22.0 17 -5 -4 1003.4 1002.7
09 16.02 ЮЗ 3
{11}
50 км ясно -4.4 -21.0 26 -9 -9 1003.8 1003.1 +0.5
12 16.02 З 5-11
{11}
20 км 4/0
[Ci fib]
-4.8 -19.8 30 -11 -11 1003.9 1003.2
15 16.02 СЗ 3
{11}
20 км ясно -7.2 -18.4 40 -12 -12 1002.6 1001.9
18 16.02 ЮЗ 3
{10}
20 км ясно -4.0 -18.5 31 -8 -8 1001.9 1001.2
21 16.02 З 1 20 км 4/0
[Ci fib]
-8.5 -17.9 47 -10 -10 1003.0 1002.3 -8.5
00 17.02 ЮЗ 3 20 км 5/0
[Cc]
-4.3 -16.3 39 -9 -7 1004.5 1003.8 -9.9
03 17.02 З 4
{11}
20 км 3/3 600 м
[Cu hum]
+0.9 -17.9 23 -3 -0 1002.9 1002.2
06 17.02 СЗ 4
{10}
20 км 5/5 600 м
[Cu hum]
+2.3 -17.6 21 -1 -1 1001.8 1001.1
09 17.02 ЮЗ 3 20 км ясно -2.2 -17.6 30 -6 -6 1003.0 1002.3 +2.8
12 17.02 ЮЗ 2 20 км ясно -4.1 -13.9 46 -8 -8 1005.2 1004.5
15 17.02 З 2 20 км ясно -4.3 -13.2 50 -8 -8 1007.7 1007.0
18 17.02 СЗ 1
{10}
20 км ясно -4.4 -17.0 37 -6 -6 1011.5 1010.8
21 17.02 З 2 20 км ясно -10.5 -16.9 59 -15 -15 1013.8 1013.1 -10.9
00 18.02 ЮЗ 3 50 км ясно -6.4 -15.9 47 -12 -9 1015.9 1015.2 -13.1
03 18.02 ЮЗ 4
{10}
50 км ясно +2.1 -18.6 20 -2 +3 1014.9 1014.2
06 18.02 ЮЗ 5
{12}
50 км ясно +5.1 -20.1 14 +2 +3 1013.5 1012.8
09 18.02 З 2
{11}
50 км ясно -1.4 -8.4 59 -5 -5 1014.9 1014.2 +5.3
12 18.02 ЮЗ 3 50 км ясно -4.1 -15.2 42 -9 -9 1016.5 1015.8
15 18.02 ЮЗ 3 50 км ясно -8.6 -15.2 59 -14 -14 1017.6 1016.9
18 18.02 ЮЗ 4 50 км ясно -9.5 -15.1 64 -16 -16 1017.0 1016.3
21 18.02 ЮЗ 5 50 км 8/0
[Ci fib]
-8.8 -15.2 60 -16 -16 1017.2 1016.5 -10.0
00 19.02 ЮЗ 5 20 км 10/0
[Ac und]
-5.9 -14.5 51 -13 -12 1017.5 1016.8
03 19.02 ЮЗ 2 20 км 10/0
[As trans]
+3.7 -14.7 25 +2 +5 1016.4 1015.7
06 19.02 ЮВ 2 20 км 10/0
[As op]
+2.6 -12.0 33 +1 +1 1015.0 1014.3

 

Местоположение метеостанции Сосуново (Приморский край, Россия): широта 46.55 долгота 138.30 высота над уровнем моря 4 м.

В архиве по умолчанию представлена погода в Сосуново за последнюю неделю. Архивные данные за месяц целиком и за предыдущие месяцы, начиная с января 2011 года, Вы можете получить, выбрав интересующий диапазон дат из раскрывающегося списка и нажав кнопку "Ввод!".


*Определитесь, кто Вы:
робот инопланетянин человек

Внимание! Время в таблицах - всемирное. Для получения местного времени необходимо прибавить поправку, которая равна 10 ч.

Смотрите также архив погоды в соседних городах и на ближайших метеорологических станциях:

Погода в Агзу (Приморский край, Россия) (117 км)
Погода в Сукпае (Хабаровский край, Россия) (142 км)
Погода в Малой Кеме (Приморский край, Россия) (158 км)
Погода в Гвасюгах (Хабаровский край, Россия) (208 км)
Погода в Тернее (Приморский край, Россия) (217 км)
Погода в Остров Монерон (Сахалинская область, Россия) (225 км)
Погода в Красном Яре (Приморский край, Россия) (230 км)
Погода в Глубинном (Приморский край, Россия) (237 км)
Погода в Бичевой (Хабаровский край, Россия) (245 км)
Погода в Тивяку (Хабаровский край, Россия) (248 км)

Пояснения к столбцам:

Ветер - указаны скорость ветра в м/с - средняя за 10 мин, порывы в срок и между сроками (в фигурных скобках) и направление, откуда дует ветер: С - северный, СВ - северо-восточный, В - восточный, ЮВ - юго-восточный, Ю - южный, ЮЗ - юго-западный, З - западный, СЗ - северо-западный.
Видимость - горизонтальная дальность видимости в метрах или километрах. При видимости от 1 до 10 км при отсутствии осадков обычно наблюдается дымка, при ухудшении видимости до 1 км и менее - туман. В сухую погоду видимость может ухудшаться дымом, пылью или мглою.
Явления - указаны атмосферные явления, наблюдавшиеся в срок или в последний час перед сроком; фигурными скобками обозначены явления, наблюдавшиеся между сроками (за 1-3 часа до срока); квадратными скобками обозначены град или гололедные отложения с указанием их диаметра в мм.
Облачность - указаны через наклонную черту общая и нижняя облачность в баллах и высота нижней границы облаков в метрах; квадратными скобками обозначены формы облаков: Ci - перистые, Cs - перисто-слоистые, Cc - перисто-кучевые, Ac - высококучевые, As - высокослоистые, Sc - слоисто-кучевые, Ns - слоисто-дождевые, Cu - кучевые, Cb - кучево-дождевые. Подробнее классификацию облаков см. в Атласе облаков (PDF).
T - Температура воздуха - температура, измеренная на высоте 2 м над землей.
Td - Температура точки росы - температура, при понижении до которой содержащийся в воздухе водяной пар достигнет насыщения.
f - Относительная влажность воздуха - влажноcть воздуха, измеренная на высоте 2 м над землей.
Te - Эффективная температура - температура, которую ощущает одетый по сезону человек в тени. Характеристика душности погоды. При расчете учитывается влияние влажности воздуха и скорости ветра на теплоощущения человека.
Tes - Эффективная температура на солнце - температура, которую ощущает человек, с поправкой на солнечный нагрев. Характеристика знойности погоды. Зависит от высоты солнца над горизонтом, облачности и скорости ветра. Ночью, в пасмурную погоду, а также при ветре 12 м/с и более поправка равна нулю.
P - Атмосферное давление - приведенное к уровню моря атмосферное давление.
Po - Атмосферное давление - измеренное на уровне метеостанции атмосферное давление.
Tmin - Минимальная температура - минимум температуры воздуха на высоте 2 м над землей.
Tmax - Максимальная температура - максимум температуры воздуха на высоте 2 м над землей.
R - Количество осадков - Количество выпавших осадков за период времени, мм. При наведении курсора мыши на число - период времени, за который выпало указанное количество осадков.
R24 - Количество осадков - Количество выпавших осадков за 24 часа, мм.
S - Снежный покров - Высота снежного покрова, см. При наведении курсора мыши на число - состояние снежного покрова и степень покрытия местности в баллах.